ENFBENTO

Guest
Details From ENFB - [X] Oslo Fornebu
To ENTO - TORP
Flight Number -
Tags generated
Created
Modified
Stats Distance 46 nm / 85 km
Max Altitude 200 ft / 61 m
Waypoints 3
Social Downloads 0
Likes 0
Share VATSIM

Download

Looking for another format? Having issues loading an existing format? Contact us
Advertisement - Login to hide

Notes

Basic altitude profile: - Ascent Rate: 1500ft/min - Ascent Speed: 200kts - Cruise Altitude: 17000ft - Cruise Speed: 420kts - Descent Rate: 1500ft/min - Descent Speed: 250kts

Route

ENFB TOR ENTO

ID Type Via Altitude Latitude Longitude Leg Dist Tot Dist Heading (true) Name
O ENFB APT - 0 ft / 0 m 59.89616˚ 10.61583˚ - 0 nm - [X] Oslo Fornebu
TOR VOR - 200 ft / 61 m 59.16911˚ 10.25927˚ 44 nm 44 nm 194° / 194° TORP VOR-DME
O ENTO APT - 0 ft / 0 m 59.18666˚ 10.25860˚ 1 nm 46 nm 359° / 359° TORP

Altitude Profile

Advertisement - Login to hide

ENFB

Details ICAO ENFB (FBU)
Name [X] Oslo Fornebu
Region Norway
Timezone Europe/Oslo (UTC+2.0)
Stats Elevation 52 ft / 16 m (AMSL)
Location 59.896160° 10.615832°
Runways 2
Magnetic Variation 3.244° E

METAR

ENFB 251820Z AUTO 03017KT //// OVC007/// 09/08 Q1032 W///S4

Decode

TAF

Not found

Departure Runways

ID Width Length Bearing (true) Bearing (mag) Surface Threshold Offset Overrun Length
01 150 ft / 46 m 6,076 ft / 1,852 m 5.47° 2.23° Asphalt 0 ft / 0 m 0 ft / 0 m
06 150 ft / 46 m 8,008 ft / 2,441 m 57.98° 54.74° Asphalt 0 ft / 0 m 0 ft / 0 m
19 150 ft / 46 m 6,076 ft / 1,852 m 185.47° 182.23° Asphalt 0 ft / 0 m 0 ft / 0 m
24 150 ft / 46 m 8,008 ft / 2,441 m 238.02° 234.78° Asphalt 0 ft / 0 m 0 ft / 0 m

ENTO

Details ICAO ENTO (TRF)
Name TORP
Region Norway
Timezone Europe/Oslo (UTC+2.0)
Stats Elevation 286 ft / 87 m (AMSL)
Location 59.186662° 10.258596°
Runways 1
Magnetic Variation 3.070° E

METAR

ENTO 251820Z 27004KT CAVOK 24/07 Q1025

Decode

TAF

TAF ENTO 251700Z 2518/2618 VRB06KT CAVOK BECMG 2602/2604 01012KT BECMG 2612/2614 VRB05KT

Decode

Destination Runways

ID Width Length Bearing (true) Bearing (mag) Surface Threshold Offset Overrun Length
18 148 ft / 45 m 9,820 ft / 2,993 m 179.40° 176.33° Asphalt 1,231 ft / 375 m 0 ft / 0 m
36 148 ft / 45 m 9,820 ft / 2,993 m 359.40° 356.33° Asphalt 1,231 ft / 375 m 0 ft / 0 m

Approach Navaids

Runway Type Ident Frequency Range Bearing (true) Bearing (mag) Slope Elevation
18 Localiser TP 108.30 MHz 18 nm / 33 km 179.33° 176.26° - 312 ft / 95 m (AMSL)
18 Glidescope TP 108.30 MHz 10 nm / 19 km 179.40° 176.33° 3.00° 286 ft / 87 m (AMSL)
36 Localiser SFJ 110.95 MHz 25 nm / 46 km 359.33° 356.26° - 268 ft / 82 m (AMSL)
36 Glidescope SFJ 110.95 MHz 25 nm / 46 km 359.33° 356.26° 3.00° 254 ft / 77 m (AMSL)
36 DME SFJ 110.95 MHz 25 nm / 46 km - - - 279 ft / 85 m (AMSL)